Details From LFPN - Toussus-le-Noble
To LFOH - Le Havre-Octeville
Flight Number -
Tags generated
Created
Modified
Stats Distance 92 nm / 171 km
Max Altitude 0 ft / 0 m
Waypoints 3
Social Downloads 0
Likes 0
Share VATSIM

Download

Looking for another format? Having issues loading an existing format? Contact us
Advertisement - Login to hide

Notes

Basic altitude profile: - Ascent Rate: 1300ft/min - Ascent Speed: 250kts - Cruise Altitude: 150ft - Cruise Speed: 150kts - Descent Rate: 1500ft/min - Descent Speed: 250kts Options: - Use NATs: yes - Use PACOTS: yes - Use low airways: yes - Use high airways: yes

Route

LFPN TSU LFOH

ID Type Via Altitude Latitude Longitude Leg Dist Tot Dist Heading (true) Name
O LFPN APT - 0 ft / 0 m 48.75191˚ 2.10607˚ - 0 nm - Toussus-le-Noble
TSU VOR - 0 ft / 0 m 48.75372˚ 2.10236˚ 0 nm 0 nm 307° / 307° TOUSSUS LE NOBLE VOR
O LFOH APT - 0 ft / 0 m 49.53408˚ 0.08846˚ 91 nm 92 nm 301° / 300° Le Havre-Octeville

Altitude Profile

Advertisement - Login to hide

LFPN

Details ICAO LFPN (TNF)
Name Toussus-le-Noble
Region France
Timezone Europe/Paris (UTC+2.0)
Stats Elevation 537 ft / 164 m (AMSL)
Location 48.751909° 2.106072°
Runways 2
Magnetic Variation 0.579° E

METAR

LFPN 272330Z AUTO 27003KT CAVOK 18/15 Q1016

Decode

TAF

Not found

Departure Runways

ID Width Length Bearing (true) Bearing (mag) Surface Threshold Offset Overrun Length
07L 98 ft / 30 m 3,670 ft / 1,119 m 71.18° 70.60° Asphalt 0 ft / 0 m 586 ft / 179 m
07R 98 ft / 30 m 3,416 ft / 1,041 m 71.16° 70.58° Asphalt 0 ft / 0 m 0 ft / 0 m
25L 98 ft / 30 m 3,416 ft / 1,041 m 251.17° 250.59° Asphalt 0 ft / 0 m 0 ft / 0 m
25R 98 ft / 30 m 3,670 ft / 1,119 m 251.19° 250.61° Asphalt 0 ft / 0 m 0 ft / 0 m

LFOH

Details ICAO LFOH (LEH)
Name Le Havre-Octeville
Region France
Timezone Europe/Paris (UTC+2.0)
Stats Elevation 311 ft / 95 m (AMSL)
Location 49.534079° 0.088457°
Runways 1
Magnetic Variation 0.116° W

METAR

LFOH 272330Z AUTO 09004KT CAVOK 19/13 Q1016

Decode

TAF

TAF LFOH 271834Z 2718/2812 CNL

Decode

Destination Runways

ID Width Length Bearing (true) Bearing (mag) Surface Threshold Offset Overrun Length
04 131 ft / 40 m 7,553 ft / 2,302 m 43.07° 43.19° Asphalt 0 ft / 0 m 0 ft / 0 m
22 131 ft / 40 m 7,553 ft / 2,302 m 223.08° 223.20° Asphalt 0 ft / 0 m 0 ft / 0 m

Approach Navaids

Runway Type Ident Frequency Range Bearing (true) Bearing (mag) Slope Elevation
22 Localiser OT 109.50 MHz 18 nm / 33 km 223.06° 223.18° - 322 ft / 98 m (AMSL)
22 Glidescope OT 109.50 MHz 10 nm / 19 km 223.07° 223.19° 3.00° 313 ft / 95 m (AMSL)
22 DME OT 109.50 MHz 18 nm / 33 km - - - 354 ft / 108 m (AMSL)

Popular Alternatives